Aeroporto :
LOGIN :

Iscrizione | Disclaimer

   EN    FR    IT 

 










Sommario :    VFR   VFR Marginale   IFR   IFR Intensivo   IFR Molto Intensivo
Visibilità : 
Base nubi : 
>= 8 km
>= 3000ft
5 / 8 km
1000 / 3000 ft
1500m / 5 km
500 / 1000 ft
800 / 1500m
200 / 500 ft
< 800m
< 200 ft
Simboli :   Temporali  Nebbia  Neve Forte  Precipitazioni Forti  Vento > 20 kt
SIGMETs :   Varie  Temporali  Ghiacco  Turbolenza  Onda orograficha  Ceneri Vulcaniche







- Altitudine del aeroporto : 659 ft
- Codice IATA : LGG


EBLG - Liège

ULTIMO METAR :
  • 231620Z 23009KT 9999 FEW011 BKN039 12/09 Q1021 NOSIG

METARs OBSOLETI :
  • 231550Z 23008KT 9999 FEW011 BKN032 13/09 Q1021 NOSIG
  • 231520Z 23008KT 9999 FEW011 BKN032 13/09 Q1020 NOSIG
  • 231450Z 24008KT 9999 FEW011 BKN029 13/09 Q1021 NOSIG
  • 231420Z 24008KT 9999 FEW011 BKN031 13/08 Q1020 NOSIG
  • 231350Z 25010KT 9999 SCT021 13/08 Q1020 NOSIG

TAF TAF EBLG
Valido dal 23 a 12 ore il 24 a 18 ore UTC


231110Z 2312/2418 23008KT 9999 BKN020
BECMG 2315/2317 4500 -RADZ BR BKN007
TEMPO 2315/2408 2000 DZRA BKN004
BECMG 2412/2414 9999 BKN025
Nessun NOTAM noto per questo aeroporto.



MetMap, La meteo Aeronautica in un colpo d'occhio ! - Copyright ORBIFLY Dicembre 2007 - Disclaimer

ORBIFLY MET'MAP TEAM :

Programmazione e sviluppo : Alexandra Zaïnal
Concezione e sviluppo : Baudouin d'Aumeries
Co-Programmazione e sviluppo : Marc-Olivier Méhu
Supporto tecnico e logistico : Manuel Goepfert
Aiuto per la traduzione : Arnaldo La Scala

Contatto : metmap@orbifly.com




FONTI E CREDITI :

   NOAA